Regional Weather Roundup
Issued by NWS

Current Version | Previous Version | Text Only | Print | Product List | Glossary On
Versions: 1 2 3 4 5 6 7 8 9 10 11 12 13 14 15 16 17 18 19 20 21 22 23 24 25 26 27 28 29 30 31 32 33 34 35 36 37 38 39 40 41 42 43 44 45 46 47 48 49 50
000
ASUS44 KMEG 012210
RWRTN
TENNESSEE HOURLY STATE WEATHER ROUNDUP
NATIONAL WEATHER SERVICE MEMPHIS TN
500 PM CDT TUE SEP 01 2015

TNZ002-004-019-021-049-052-054-088>092-012300-
WEST TENNESSEE

CITY           SKY/WX    TMP DP  RH WIND       PRES   REMARKS
MEMPHIS INTL   CLOUDY    90  66  45 S8        30.05S HX  92
NWS MEMPHIS      N/A     87 N/A N/A MISG        N/A
JACKSON        MOSUNNY   86  69  56 CALM      30.07S HX  90
DYERSBURG      PTSUNNY   86  70  58 CALM      30.07S HX  90
UNION CITY     MOSUNNY   88  70  55 W3        30.05S HX  92
PARIS          SUNNY     84  66  54 CALM      30.09S
LEXINGTON      PTSUNNY   84  70  61 N3        30.07S
$$

TNZ008-025-027-028-033-062-065-066-012300-
NORTH MIDDLE TENNESSEE

CITY           SKY/WX    TMP DP  RH WIND       PRES   REMARKS
NASHVILLE      CLOUDY    88  63  43 E5        30.08F
CLARKSVILLE    PTSUNNY   88  65  46 SW6       30.07S HX  90
SMYRNA         PTSUNNY   94  66  39 VRB3      30.08F HX  97
COOKEVILLE     MOSUNNY   86  72  62 N3        30.10S HX  92
CROSSVILLE     PTSUNNY   81  65  58 CALM      30.16S
$$

TNZ061-075-076-078-094-096-097-012300-
SOUTH MIDDLE TENNESSEE

CITY           SKY/WX    TMP DP  RH WIND       PRES   REMARKS
FAYETTEVILLE     N/A     84  64  51 CALM      30.09F
TULLAHOMA      MOSUNNY   84  66  54 N6        30.11F
WINCHESTER     MOSUNNY   86  68  54 NE5       30.09F
MCMINNVILLE    MOSUNNY   86  68  54 E3        30.11S
COLUMBIA       MOSUNNY   88  68  51 CALM      30.07S HX  91
SHELBYVILLE    SUNNY     88  70  55 VRB3      30.10S HX  92
$$

TNZ017-018-042-046-047-012300-
NORTHEAST TENNESSEE

CITY           SKY/WX    TMP DP  RH WIND       PRES   REMARKS
TRI CITIES     PTSUNNY   87  64  46 N6        30.11S
ELIZABETHTON   PTCLDY    84  63  48 NE3       30.12R
$$

TNZ012-013-036-069-073-074-012300-
CENTRAL EAST TENNESSEE

CITY           SKY/WX    TMP DP  RH WIND       PRES   REMARKS
KNOXVILLE      PTSUNNY   88  61  40 NE3       30.09R
OAK RIDGE      MOSUNNY   90  65  43 VRB3      30.11S HX  92
GATLINBURG       N/A     90  61  37 NE7       30.08S
MORRISTOWN     CLEAR     86  64  48 N3        30.12S
$$

TNZ083-085-099-012300-
SOUTHEAST TENNESSEE

CITY           SKY/WX    TMP DP  RH WIND       PRES   REMARKS
CHATTANOOGA    MOSUNNY   89  65  44 NW6       30.08F HX  91
$$

SKY/WX REPORTED AS FAIR MEANS FEW OR NO CLOUDS BELOW
12 THOUSAND FEET.




USA.gov is the U.S. government's official web portal to all federal, state and local government web resources and services.